Location: Presov
(49.0000°N, 21.2500°E)
Time: 06:01:57
(UTC+02:00)

Transit 2A Rocket - Pass Details

Date: 15 April 2021
Orbit: 594 x 909 km, 66.7° (Epoch: 07 May)

Event Time Altitude Azimuth Distance (km) Brightness Sun altitude
Rises 23:59:00 0° 329° (NNW) 2,848 9.0 -30.7°
Reaches altitude 10° 00:01:41 10° 346° (NNW) 1,958 8.0 -30.8°
Maximum altitude 00:05:04 21° 37° (NE) 1,388 6.7 -30.9°
Enters shadow 00:05:26 21° 44° (NE) 1,400 6.7 -30.9°
Drops below altitude 10° 00:08:34 10° 87° (E) 2,032 - -31.0°
Sets 00:11:24 0° 103° (ESE) 2,989 - -31.0°
